Regional Weather Roundup
Issued by NWS Burlington, VT

Home | Current Version | Previous Version | Text Only | Print | Product List | Glossary On
Versions: 1 2 3 4 5 6 7 8 9 10 11 12 13 14 15 16 17 18 19 20 21 22 23 24 25 26 27 28 29 30 31 32 33 34 35 36 37 38 39 40 41 42 43 44 45 46 47 48 49 50
000
ASUS41 KBTV 230830
RWRBTV
VERMONT REGIONAL WEATHER ROUNDUP
NATIONAL WEATHER SERVICE BURLINGTON VT
300 AM EST THU NOV 23 2017

NOTE: "FAIR" INDICATES FEW OR NO CLOUDS BELOW 12,000 FEET WITH NO
SIGNIFICANT WEATHER AND/OR OBSTRUCTIONS TO VISIBILITY.

* THESE REPORTS ARE NOT UNDER NWS QUALITY CONTROL AND/OR DO NOT
  REPORT WEATHER SUCH AS PRECIPITATION AND FOG.

VTZ001>019-230900-
_____VERMONT_____


CITY           SKY/WX    TMP DP  RH WIND       PRES   REMARKS
BURLINGTON     CLOUDY    24  12  60 N10       30.10S WCI  14
MONTPELIER     CLOUDY    22  16  78 MISG      30.05R
MORRISVILLE    CLOUDY    20  12  71 N7        30.06R WCI  11
ST. JOHNSBURY*   N/A     24  15  68 MISG      30.01S
LYNDONVILLE*   MOCLDY    21  14  75 W10G18    30.01R WCI  10
MIDDLEBURY*    FAIR      24  15  68 N7        30.07F WCI  16
RUTLAND*       CLOUDY    26  18  71 NW8       30.05R WCI  18
SPRINGFIELD    CLOUDY    28  18  66 NW8G20    30.04R WCI  20
HIGHGATE*      CLOUDY    22  13  70 W7        30.10F WCI  13
NEWPORT*       FLURRIES  21  16  81 NW10      30.02S WCI  10
BENNINGTON     CLOUDY    28  17  63 N6        30.05R WCI  22
SUTTON*          N/A     19 N/A N/A MISG        N/A
ISLAND POND*     N/A     21 N/A N/A W12         N/A  WCI   9
GALLUP MILLS*    N/A     21 N/A N/A MISG        N/A
UNION VILLAGE*   N/A     27 N/A N/A MISG        N/A

_____LAKE CHAMPLAIN_____


CITY           SKY/WX    TMP DP  RH WIND       PRES   REMARKS
BURTON ISLAND*   N/A     25  18  74 N10G18      N/A  WCI  15
COLCHESTER RF*   N/A     27  16  63 N22G28      N/A  WCI  12
DIAMOND ISL*     N/A     28  18  64 N16         N/A  WCI  17

$$

NYZ007-026>031-035-052-083-087-230900-
_____NORTHERN NEW YORK_____


CITY           SKY/WX    TMP DP  RH WIND       PRES   REMARKS
PLATTSBURGH    CLOUDY    22  10  60 NW7       30.12R WCI  13
SARANAC LAKE   LGT SNOW  14  12  92 W3        30.01F FOG
MASSENA        CLEAR     19  15  84 W5        30.16F WCI  12
OGDENSBURG*    MOCLDY    19  16  88 CALM      30.16R
POTSDAM*       CLEAR     18  18 100 SW3       30.14S
STARK FALLS*     N/A     16 N/A N/A W3          N/A
WATERTOWN      CLOUDY    24  16  71 NE7       30.15F WCI  16
FT DRUM        CLOUDY    21  12  68 NE6       30.11F WCI  14
ALBANY         CLOUDY    32  21  64 W10       30.10R WCI  24
GLENS FALLS    CLEAR     26  17  68 N7        30.10R WCI  18

$$
NHZ002-005-011-230900-
_____NEW HAMPSHIRE_____


CITY           SKY/WX    TMP DP  RH WIND       PRES   REMARKS
LEBANON        CLOUDY    29  18  63 N3        30.03R
KEENE          CLOUDY    31  20  63 VRB7      30.02R WCI  24
MT WASHINGTON  MOCLDY     7  -2  66 NW64        N/A  WCI -24
PLYMOUTH       CLOUDY    28  19  68 NW13G20   29.99S WCI  17
WHITEFIELD     CLOUDY    25  20  81 W6        29.99R WCI  18

$$

_____REGIONAL QUEBEC LOCATIONS_____


CITY           SKY/WX    TMP DP  RH WIND       PRES   REMARKS
MONTREAL       MOCLDY    21  10  63 W9        30.12R WCI  11
QUEBEC CITY    PTCLDY    19  12  73 W9        29.97S WCI   9
SHERBROOKE     FLURRIES  21  16  79 NW9G18    30.00S WCI  11

_____REGIONAL ONTARIO LOCATIONS_____


CITY           SKY/WX    TMP DP  RH WIND       PRES   REMARKS
OTTAWA         CLEAR     16  12  86 S5        30.13F WCI   9

______KEY______
VSB  - VISIBILITY IN MILES
WCI  - WIND CHILL INDEX
HX   - HEAT INDEX
$$
NNNN



USA.gov is the U.S. government's official web portal to all federal, state and local government web resources and services.